Tracking 23731 objects as of 26-Sep-2021
HD Live streaming from Space Station
objects crossing your sky now

STARLINK-2637

Track STARLINK-2637 now!
10-day predictions
STARLINK-2637 is classified as:


NORAD ID: 48356
Int'l Code: 2021-038D
Perigee: 553.0 km
Apogee: 555.7 km
Inclination: 53.1 °
Period: 95.6 minutes
Semi major axis: 6925 km
RCS: Unknown
Launch date: May 4, 2021
Source: United States (US)
Launch site: AIR FORCE EASTERN TEST RANGE (AFETR)
aabbcc
Your satellite tracking list
Your tracking list is empty




NASA's NSSDC Master Catalog

Two Line Element Set (TLE):
1 48356U 21038D   21268.82655373 -.00001275  00000-0 -66744-4 0  9996
2 48356  53.0669 100.3170 0001937  75.1524 284.9679 15.06389945 21977
Source of the keplerian elements: AFSPC